Id;Date_time;Latitude;Longitude;Ts;Th;SLP;Vel;Dir;Clt;Tag;
1;2012-11-01 12:00:00;  86.1;-143.1; -32.3; -35.3;1028.4;   2.0;  80.0;2;NP40;
1;2012-11-01 06:00:00;  86.1;-143.0; -29.5; -32.4;1025.1;   3.0; 100.0;8;NP40;
1;2012-11-01 00:00:00;  86.1;-142.9; -28.0; -30.8;1022.5;   3.0; 120.0;6;NP40;
1;2012-10-31 18:00:00;  86.1;-142.8; -24.9; -27.5;1022.4;   3.0; 140.0;7;NP40;
1;2012-10-31 12:00:00;  86.0;-142.8; -23.1; -25.6;1024.2;   3.0; 180.0;8;NP40;
1;2012-10-31 06:00:00;  86.0;-142.8; -26.0; -28.7;1027.0;   2.0; 170.0;8;NP40;
1;2012-10-31 00:00:00;  86.0;-142.8; -23.9; -26.3;1029.0;   2.0; 200.0;8;NP40;
1;2012-10-30 18:00:00;  86.0;-142.9; -22.0; -24.3;1028.8;   2.0; 210.0;8;NP40;
1;2012-10-30 12:00:00;  86.0;-142.9; -23.2; -25.6;1027.7;   2.0; 210.0;8;NP40;
1;2012-10-30 06:00:00;  86.0;-142.9; -28.3; -31.0;1026.1;   2.0; 210.0;1;NP40;
1;2012-10-30 00:00:00;  86.0;-142.9; -27.3; -29.9;1025.0;   2.0; 230.0;1;NP40;
1;2012-10-29 18:00:00;  86.0;-143.0; -24.1; -26.5;1023.6;   2.0; 230.0;8;NP40;
1;2012-10-29 12:00:00;  86.0;-143.0; -26.0; -28.5;1022.0;   0.0;   0.0;2;NP40;
1;2012-10-29 06:00:00;  86.0;-143.1; -24.3; -26.5;1020.3;   0.0;   0.0;8;NP40;
1;2012-10-29 00:00:00;  86.0;-143.1; -23.3; -25.8;1019.3;   1.0; 130.0;8;NP40;
1;2012-10-28 18:00:00;  86.0;-143.2; -21.0; -23.3;1018.4;   2.0; 150.0;8;NP40;
1;2012-10-28 12:00:00;  86.0;-143.2; -20.7; -23.0;1019.0;   2.0; 140.0;8;NP40;
1;2012-10-28 06:00:00;  86.0;-143.2; -19.8; -21.9;1020.6;   3.0; 140.0;8;NP40;
1;2012-10-28 00:00:00;  86.0;-143.1; -18.1; -20.2;1025.7;   4.0; 140.0;8;NP40;
1;2012-10-27 18:00:00;  86.0;-143.0; -18.7; -10.7;1029.5;   4.0; 130.0;8;NP40;
1;2012-10-27 12:00:00;  86.0;-143.0; -20.5; -22.7;1033.2;   3.0; 130.0;8;NP40;
1;2012-10-27 06:00:00;  86.0;-143.0; -20.7; -22.7;1035.5;   2.0; 150.0;8;NP40;
1;2012-10-27 00:00:00;  85.9;-143.0; -15.7; -17.5;1037.6;   1.0; 120.0;8;NP40;
1;2012-10-26 18:00:00;  85.9;-143.0; -15.6; -17.4;1038.5;   2.0; 100.0;8;NP40;
1;2012-10-26 12:00:00;  85.9;-143.0; -14.8; -16.6;1038.7;   3.0; 100.0;8;NP40;
1;2012-10-26 06:00:00;  85.9;-142.9; -14.1; -15.8;1038.0;   3.0;  80.0;8;NP40;
1;2012-10-26 00:00:00;  85.9;-142.9; -12.7; -14.2;1038.4;   2.0;  60.0;8;NP40;
1;2012-10-25 18:00:00;  85.9;-143.0; -12.3; -13.8;1038.7;   0.0;   0.0;8;NP40;
1;2012-10-25 12:00:00;  85.9;-143.0; -12.1; -13.6;1039.4;   2.0; 300.0;8;NP40;
1;2012-10-25 06:00:00;  85.9;-143.1; -13.0; -14.6;1038.9;   3.0; 290.0;8;NP40;
1;2012-10-25 00:00:00;  86.0;-143.2; -20.3; -22.5;1037.8;   4.0; 280.0;6;NP40;
1;2012-10-24 18:00:00;  86.0;-143.4; -19.2; -21.2;1035.2;   4.0; 260.0;3;NP40;
1;2012-10-24 12:00:00;  86.0;-143.6; -21.3; -23.5;1033.6;   5.0; 220.0;3;NP40;
1;2012-10-24 06:00:00;  85.9;-143.8; -21.1; -23.5;1031.5;   6.0; 220.0;3;NP40;
1;2012-10-24 00:00:00;  85.9;-144.0; -22.6; -24.8;1029.7;   5.0; 220.0;1;NP40;
1;2012-10-23 18:00:00;  85.9;-144.3; -17.4; -19.4;1026.5;   6.0; 230.0;7;NP40;
1;2012-10-23 12:00:00;  85.9;-144.5; -18.3; -20.2;1024.8;   4.0; 240.0;2;NP40;
1;2012-10-23 06:00:00;  85.9;-144.8; -19.4; -21.7;1022.2;   7.0; 250.0;8;NP40;
1;2012-10-23 00:00:00;  85.9;-145.3; -17.4; -19.5;1019.5;   9.0; 250.0;8;NP40;
1;2012-10-22 18:00:00;  85.9;-145.7; -16.9; -19.1;1015.4;  10.0; 260.0;8;NP40;
1;2012-10-22 12:00:00;  85.9;-146.3; -15.7; -17.6;1010.8;   7.0; 250.0;5;NP40;
1;2012-10-22 06:00:00;  85.9;-146.8; -15.6; -17.6;1007.6;  12.0; 250.0;8;NP40;
1;2012-10-22 00:00:00;  85.9;-147.5; -13.0; -14.5;1002.0;   7.0; 310.0;8;NP40;
1;2012-10-21 18:00:00;  85.9;-147.3; -16.3; -18.3;1009.5;   4.0;  80.0;8;NP40;
1;2012-10-21 12:00:00;  85.9;-147.2; -16.7; -18.6;1015.2;   4.0; 130.0;7;NP40;
1;2012-10-21 06:00:00;  85.9;-147.1; -18.0; -20.0;1018.5;   3.0; 150.0;8;NP40;
1;2012-10-21 00:00:00;  85.8;-147.1; -19.5; -21.4;1020.6;   3.0; 150.0;7;NP40;
1;2012-10-20 18:00:00;  85.8;-147.1; -17.2; -19.1;1021.7;   2.0; 140.0;7;NP40;
1;2012-10-20 12:00:00;  85.8;-147.1; -16.1; -17.9;1023.3;   1.0; 160.0;8;NP40;
1;2012-10-20 06:00:00;  85.8;-147.1; -15.2; -16.9;1023.9;   1.0; 170.0;8;NP40;
1;2012-10-20 00:00:00;  85.8;-147.1; -15.8; -17.5;1024.8;   2.0; 170.0;8;NP40;
1;2012-10-19 18:00:00;  85.8;-147.1; -20.6; -27.7;1024.9;   2.0; 160.0;6;NP40;
1;2012-10-19 12:00:00;  85.8;-147.1; -16.6; -18.2;1025.6;   2.0; 160.0;6;NP40;
1;2012-10-19 06:00:00;  85.8;-147.0; -19.9; -21.8;1026.3;   2.0; 140.0;8;NP40;
1;2012-10-19 00:00:00;  85.8;-147.0; -20.3; -22.3;1028.2;   3.0; 140.0;8;NP40;
1;2012-10-18 18:00:00;  85.8;-147.0; -19.1; -21.0;1029.2;   2.0; 130.0;6;NP40;
1;2012-10-18 12:00:00;  85.8;-147.0; -18.2; -20.1;1030.6;   4.0; 120.0;6;NP40;
1;2012-10-18 06:00:00;  85.8;-147.0; -16.9; -18.9;1030.8;   2.0; 130.0;8;NP40;
1;2012-10-18 00:00:00;  85.8;-147.0; -20.8; -23.0;1031.2;   3.0; 140.0;6;NP40;
1;2012-10-17 18:00:00;  85.8;-147.0; -20.0; -22.1;1029.9;   2.0; 130.0;2;NP40;
1;2012-10-17 12:00:00;  85.7;-147.0; -22.2; -24.5;1028.3;   1.0; 120.0;2;NP40;
1;2012-10-17 06:00:00;  85.7;-146.8; -19.1; -21.2;1026.2;   3.0; 120.0;2;NP40;
1;2012-10-17 00:00:00;  85.7;-146.8; -15.2; -16.9;1024.2;   3.0; 110.0;7;NP40;
1;2012-10-16 18:00:00;  85.7;-146.8; -16.9; -18.8;1023.5;   1.0;  60.0;8;NP40;
1;2012-10-16 12:00:00;  85.7;-146.7; -18.2; -19.9;1023.0;   2.0; 100.0;8;NP40;
1;2012-10-16 06:00:00;  85.7;-146.6; -17.9; -19.7;1020.8;   4.0; 120.0;6;NP40;
1;2012-10-16 00:00:00;  85.7;-146.4; -14.7; -16.3;1018.7;   6.0; 130.0;4;NP40;
1;2012-10-15 18:00:00;  85.7;-146.2; -11.9; -13.2;1016.0;   7.0; 120.0;8;NP40;
1;2012-10-15 12:00:00;  85.7;-145.9; -12.1; -13.7;1012.7;   8.0; 130.0;8;NP40;
1;2012-10-15 06:00:00;  85.6;-145.7; -12.8; -11.3;1008.5;   9.0; 130.0;6;NP40;
1;2012-10-15 00:00:00;  85.6;-145.4; -11.4; -13.0;1005.1;  10.0; 120.0;8;NP40;
1;2012-10-14 18:00:00;  85.5;-144.7; -17.0; -19.4;1004.1;   7.0; 140.0;8;NP40;
1;2012-10-14 12:00:00;  85.5;-144.7; -16.8; -19.3;1003.9;   8.0; 140.0;8;NP40;
1;2012-10-14 06:00:00;  85.5;-144.3; -15.7; -18.0;1003.3;   9.0; 130.0;8;NP40;
1;2012-10-14 00:00:00;  85.5;-144.2; -14.3; -16.2;1001.9;   7.0; 100.0;8;NP40;
1;2012-10-13 18:00:00;  85.4;-143.9; -13.3; -15.5;1001.1;   8.0; 150.0;8;NP40;
1;2012-10-13 12:00:00;  85.4;-143.7; -13.1; -15.2; 998.8;   5.0; 130.0;8;NP40;
1;2012-10-13 06:00:00;  85.4;-143.6; -15.2; -17.5; 998.3;   8.0; 130.0;8;NP40;
1;2012-10-13 00:00:00;  85.3;-143.4; -14.6; -16.9; 997.0;  11.0; 130.0;8;NP40;
1;2012-10-12 18:00:00;  85.3;-143.2; -12.3; -13.9; 995.4;   2.0; 160.0;8;NP40;
1;2012-10-12 12:00:00;  85.3;-143.0; -13.9; -16.0; 997.2;   4.0; 150.0;8;NP40;
1;2012-10-12 06:00:00;  85.3;-142.8; -15.3; -17.3; 998.7;   9.0; 110.0;8;NP40;
1;2012-10-12 00:00:00;  85.3;-142.4; -16.6; -18.7;1000.9;  10.0;  90.0;8;NP40;
1;2012-10-11 18:00:00;  85.4;-142.0; -15.9; -18.1;1001.4;  11.0; 110.0;8;NP40;
1;2012-10-11 12:00:00;  85.4;-141.3; -17.1; -19.3; 998.7;  10.0; 110.0;5;NP40;
1;2012-10-11 06:00:00;  85.4;-140.9; -14.0; -16.1; 994.6;   8.0;  50.0;8;NP40;
1;2012-10-11 00:00:00;  85.5;-140.8; -11.2; -12.9; 996.5;   8.0;  50.0;8;NP40;
1;2012-10-10 18:00:00;  85.5;-141.2; -13.8; -15.6;1003.7;  11.0; 340.0;8;NP40;
1;2012-10-10 12:00:00;  85.5;-141.9; -17.4; -19.4;1014.3;   6.0; 330.0;8;NP40;
1;2012-10-10 06:00:00;  85.5;-142.0; -19.0; -21.1;1017.3;   2.0;  50.0;8;NP40;
1;2012-10-10 00:00:00;  85.5;-142.1; -26.0; -28.7;1015.8;   3.0; 120.0;3;NP40;
1;2012-10-09 18:00:00;  85.5;-142.0; -22.0; -24.4;1011.4;   5.0; 150.0;7;NP40;
1;2012-10-09 12:00:00;  85.5;-141.8; -22.6; -24.9;1008.3;   5.0; 170.0;2;NP40;
1;2012-10-09 06:00:00;  85.5;-141.7; -20.3; -22.6;1008.1;   6.0; 210.0;6;NP40;
1;2012-10-09 00:00:00;  85.5;-141.8; -19.6; -21.7;1010.8;   5.0; 230.0;7;NP40;
1;2012-10-08 18:00:00;  85.5;-141.9; -20.2; -22.4;1013.2;   5.0; 250.0;7;NP40;
1;2012-10-08 12:00:00;  85.4;-142.0; -19.4; -21.4;1015.4;   2.0; 260.0;7;NP40;
1;2012-10-08 06:00:00;  85.4;-142.2; -23.4; -25.7;1016.4;   2.0; 250.0;7;NP40;
1;2012-10-08 00:00:00;  85.4;-142.3; -25.2; -27.6;1017.3;   2.0; 310.0;7;NP40;
1;2012-10-07 18:00:00;  85.4;-142.4; -25.8; -28.0;1016.2;   0.0;   0.0;7;NP40;
1;2012-10-07 12:00:00;  85.4;-142.5; -27.3; -29.8;1011.8;   1.0; 100.0;2;NP40;
1;2012-10-07 06:00:00;  85.4;-142.6; -29.0; -31.3;1012.2;   1.0; 110.0;3;NP40;
1;2012-10-07 00:00:00;  85.4;-142.6; -27.2; -29.8;1010.3;   2.0; 130.0;2;NP40;
1;2012-10-06 18:00:00;  85.4;-142.6; -28.9; -31.6;1008.1;   0.0;   0.0;8;NP40;
1;2012-10-06 12:00:00;  85.4;-142.6; -20.8; -22.9;1007.5;   0.0;   0.0;8;NP40;
1;2012-10-06 06:00:00;  85.4;-142.6; -23.5; -25.7;1009.0;   1.0; 280.0;2;NP40;
1;2012-10-06 00:00:00;  85.4;-142.7; -26.3; -28.9;1011.0;   1.0; 350.0;2;NP40;
1;2012-10-05 18:00:00;  85.5;-142.8; -23.5; -25.8;1010.8;   2.0; 360.0;7;NP40;
1;2012-10-05 12:00:00;  85.5;-143.0; -17.2; -19.1;1010.8;   2.0; 270.0;8;NP40;
1;2012-10-05 06:00:00;  85.5;-143.1; -14.3; -15.7;1010.6;   0.0;   0.0;8;NP40;
1;2012-10-05 00:00:00;  85.5;-143.1; -15.0; -16.5;1011.3;   0.0;   0.0;6;NP40;
1;2012-10-04 18:00:00;  85.5;-143.2; -14.2; -15.7;1010.8;   0.0;   0.0;4;NP40;
1;2012-10-04 12:00:00;  85.5;-143.2;  -8.8;  -9.8;1010.7;   0.0;   0.0;8;NP40;
1;2012-10-04 06:00:00;  85.4;-143.2; -11.2; -12.5;1010.4;   1.0; 210.0;7;NP40;
1;2012-10-04 00:00:00;  85.4;-143.1; -11.3; -12.5;1011.3;   3.0; 200.0;8;NP40;
1;2012-10-03 18:00:00;  85.4;-143.0; -11.6; -12.8;1012.0;   5.0; 180.0;8;NP40;
1;2012-10-03 12:00:00;  85.4;-142.9; -11.7; -12.9;1013.9;   4.0; 200.0;8;NP40;
1;2012-10-03 06:00:00;  85.4;-142.8; -14.3; -15.3;1015.8;   3.0; 180.0;8;NP40;
1;2012-10-03 00:00:00;  85.4;-142.7; -16.7; -18.3;1017.8;   3.0; 130.0;6;NP40;
1;2012-10-02 18:00:00;  85.4;-142.7; -16.0; -17.8;1017.7;   5.0; 130.0;7;NP40;
1;2012-10-02 12:00:00;  85.4;-142.7; -13.5; -15.0;1017.3;   4.0; 190.0;7;NP40;
1;2012-10-02 06:00:00;  85.3;-142.8; -19.3; -21.3;1016.6;   2.0; 110.0;7;NP40;
1;2012-10-02 00:00:00;  85.3;-142.8; -17.5; -17.6;1015.2;   2.0; 230.0;7;NP40;
1;2012-10-01 21:00:00;  85.3;-142.9; -16.8; -17.0;1013.8;   2.0; 230.0;6;NP40;
